Weather History for Worland, WY

Change the Weather History Date:

Saturday, November 10, 2012

  Actual Average Record
Temperature  
Mean Temperature 16 °F 34 °F  
Max Temperature 26 °F 48 °F 69 °F (2007)
Min Temperature 5 °F 20 °F -12 °F (1986)
Degree Days  
Heating Degree Days 49 31  
Month to date heating degree days 243 285  
Since 1 July heating degree days 949 1147  
Cooling Degree Days 0 0  
Month to date cooling degree days 0 0  
Year to date cooling degree days 901 535  
Moisture  
Dew Point 16 °F    
Average Humidity 86    
Maximum Humidity 92    
Minimum Humidity 80    
Precipitation  
Precipitation 0.09 in 0.01 in 0.42 in (2008)
Month to date precipitation 0.50 0.13  
Year to date precipitation 2.55 7.12  
Sea Level Pressure  
Sea Level Pressure 29.83 in    
Wind  
Wind Speed 8 mph (NW)    
Max Wind Speed 12 mph    
Max Gust Speed 20 mph    
Visibility 3 miles    
Events Fog , Snow    
T = Trace of Precipitation, MM = Missing Value Source: NWS Daily Summary

Daily Weather History Graph

Daily Weather History Graph

Search for Another Location

Airport:

Trip Planner

Search our weather history database for the weather conditions in past years. The results will help you decide how hot, cold, wet, or windy it might be!

Date:

Astronomy

Nov. 10, 2012 Rise Set
Actual Time 7:00 AM MST 4:50 PM MST
Civil Twilight 6:30 AM MST 5:20 PM MST
Nautical Twilight 5:55 AM MST 5:55 PM MST
Astronomical Twilight 5:21 AM MST 6:29 PM MST
Moon 3:02 AM MST (11/10) 2:44 PM MST (11/10)
Length of Visible Light 10h 50m
Length of Day
9h 49m
Waning Crescent, 14% of the Moon is Illuminated
Nov 10
Waning Crescent
Nov 13
New
Nov 20
First Quarter
Nov 28
Full
Dec 6
Last Quarter

Hourly Weather History & Observations

Time (MST) Temp. Windchill Dew Point Humidity Pressure Visibility Wind Dir Wind Speed Gust Speed Precip Events Conditions
12:06 AM 26.6 °F 17.5 °F 24.8 °F 93% 29.66 in 2.5 mi NW 9.2 mph - 0.00 in Snow Light Snow
12:16 AM 26.6 °F 16.8 °F 24.8 °F 93% 29.67 in 1.5 mi WNW 10.4 mph - 0.00 in Snow Light Snow
12:32 AM 24.8 °F 12.9 °F 23.0 °F 93% 29.68 in 0.5 mi NW 13.8 mph 19.6 mph 0.01 in Fog , Snow Snow
12:53 AM 25.0 °F 16.3 °F 23.0 °F 92% 29.77 in 0.8 mi NW 8.1 mph - 0.02 in Snow Light Snow
1:01 AM 24.8 °F 14.6 °F 23.0 °F 93% 29.67 in 0.8 mi NW 10.4 mph - 0.01 in Snow Light Snow
1:06 AM 24.8 °F 15.3 °F 21.2 °F 86% 29.67 in 1.0 mi NW 9.2 mph - 0.01 in Snow Light Snow
1:24 AM 24.8 °F 15.3 °F 21.2 °F 86% 29.67 in 1.2 mi NW 9.2 mph - 0.01 in Snow Light Snow
1:37 AM 24.8 °F 14.6 °F 21.2 °F 86% 29.65 in 1.5 mi NNW 10.4 mph - 0.01 in Snow Light Snow
1:51 AM 24.8 °F 14.0 °F 21.2 °F 86% 29.67 in 2.5 mi NW 11.5 mph - 0.01 in Snow Light Snow
1:53 AM 24.1 °F 13.7 °F 21.0 °F 88% 29.77 in 3.0 mi NW 10.4 mph - 0.01 in Snow Light Snow
2:00 AM 23.0 °F 13.1 °F 21.2 °F 93% 29.66 in 4.0 mi NNW 9.2 mph - 0.00 in Snow Light Snow
2:53 AM 23.0 °F 13.9 °F 19.0 °F 85% 29.80 in 10.0 mi NW 8.1 mph - 0.00 in Snow Light Snow
3:50 AM 21.2 °F 11.7 °F 19.4 °F 93% 29.69 in 2.5 mi NW 8.1 mph - 0.00 in Snow Light Snow
3:53 AM 21.9 °F 12.5 °F 19.0 °F 89% 29.80 in 2.5 mi NW 8.1 mph - 0.00 in Snow Light Snow
4:02 AM 21.2 °F 12.6 °F 19.4 °F 93% 29.69 in 4.0 mi NW 6.9 mph - 0.00 in Snow Light Snow
4:53 AM 21.0 °F 8.6 °F 18.0 °F 88% 29.81 in 9.0 mi NW 12.7 mph - 0.00 in   Overcast
5:53 AM 19.9 °F 7.9 °F 17.1 °F 89% 29.83 in 8.0 mi NW 11.5 mph - N/A   Overcast
6:36 AM 19.4 °F 9.5 °F 17.6 °F 93% 29.74 in 2.0 mi NW 8.1 mph - 0.00 in Snow Light Snow
6:43 AM 19.4 °F 8.6 °F 17.6 °F 93% 29.75 in 1.5 mi WNW 9.2 mph - 0.01 in Snow Light Snow
6:53 AM 19.9 °F 11.1 °F 17.1 °F 89% 29.87 in 1.0 mi NW 6.9 mph - 0.01 in Snow Light Snow
7:00 AM 19.4 °F 10.4 °F 17.6 °F 93% 29.75 in 0.8 mi NW 6.9 mph - 0.00 in Snow Light Snow
7:10 AM 19.4 °F 10.4 °F 17.6 °F 93% 29.74 in 1.0 mi NW 6.9 mph - 0.00 in Snow Light Snow
7:21 AM 19.4 °F 11.5 °F 17.6 °F 93% 29.75 in 0.8 mi NW 5.8 mph - 0.01 in Snow Light Snow
7:29 AM 19.4 °F 10.4 °F 17.6 °F 93% 29.75 in 0.8 mi NW 6.9 mph - 0.01 in Snow Light Snow
7:53 AM 19.0 °F 7.5 °F 16.0 °F 88% 29.88 in 1.0 mi NW 10.4 mph - 0.01 in Snow Light Snow
8:19 AM 19.4 °F 10.4 °F 15.8 °F 86% 29.75 in 0.5 mi NW 6.9 mph - 0.00 in Fog , Snow Snow
8:43 AM 19.4 °F 8.6 °F 15.8 °F 86% 29.75 in 0.5 mi NW 9.2 mph - 0.01 in Fog , Snow Light Snow
8:53 AM 19.0 °F 7.5 °F 15.1 °F 85% 29.88 in 0.8 mi NW 10.4 mph - 0.01 in Snow Light Snow
9:53 AM 18.0 °F 6.9 °F 15.1 °F 88% 29.90 in 0.8 mi NW 9.2 mph - 0.00 in Snow Light Snow
10:15 AM 19.4 °F 7.9 °F 15.8 °F 86% 29.78 in 0.5 mi NW 10.4 mph - 0.01 in Fog , Snow Snow
10:33 AM 19.4 °F 9.5 °F 15.8 °F 86% 29.78 in 0.2 mi NW 8.1 mph - 0.01 in Fog , Snow Snow
10:53 AM 19.0 °F 8.2 °F 15.1 °F 85% 29.92 in 0.2 mi NW 9.2 mph - 0.02 in Fog , Snow Snow
11:03 AM 19.4 °F 8.6 °F 15.8 °F 86% 29.79 in 0.5 mi WNW 9.2 mph - 0.00 in Fog , Snow Light Snow
11:22 AM 19.4 °F 9.5 °F 15.8 °F 86% 29.79 in 0.5 mi WNW 8.1 mph - 0.00 in Fog , Snow Light Snow
11:53 AM 19.0 °F 7.5 °F 15.1 °F 85% 29.92 in 0.8 mi WNW 10.4 mph - 0.00 in Snow Light Snow
12:25 PM 19.4 °F 7.2 °F 15.8 °F 86% 29.79 in 1.0 mi NW 11.5 mph - 0.00 in Snow Light Snow
12:38 PM 19.4 °F 8.6 °F 15.8 °F 86% 29.79 in 0.8 mi WNW 9.2 mph - 0.00 in Snow Light Snow
12:53 PM 19.0 °F 8.2 °F 15.1 °F 85% 29.94 in 0.8 mi NW 9.2 mph - 0.00 in Snow Light Snow
1:03 PM 19.4 °F 8.6 °F 15.8 °F 86% 29.79 in 1.8 mi NW 9.2 mph - 0.00 in Snow Light Snow
1:10 PM 19.4 °F 7.9 °F 15.8 °F 86% 29.79 in 2.0 mi NW 10.4 mph - 0.00 in Snow Light Snow
1:17 PM 19.4 °F 7.9 °F 15.8 °F 86% 29.80 in 1.2 mi NW 10.4 mph - 0.00 in Snow Light Snow
1:33 PM 19.4 °F 7.9 °F 14.0 °F 80% 29.80 in 3.0 mi NW 10.4 mph - 0.00 in Snow Light Snow
1:48 PM 19.4 °F 8.6 °F 14.0 °F 80% 29.81 in 2.5 mi NW 9.2 mph - 0.00 in Snow Light Snow
1:53 PM 19.0 °F 9.0 °F 15.1 °F 85% 29.95 in 2.5 mi WNW 8.1 mph - 0.00 in Snow Light Snow
2:20 PM 19.4 °F 7.9 °F 14.0 °F 80% 29.81 in 2.0 mi NW 10.4 mph - 0.00 in Snow Light Snow
2:53 PM 18.0 °F 7.7 °F 14.0 °F 84% 29.97 in 2.5 mi NW 8.1 mph - 0.00 in Snow Light Snow
3:02 PM 17.6 °F 7.3 °F 14.0 °F 86% 29.83 in 4.0 mi NW 8.1 mph - 0.00 in Snow Light Snow
3:12 PM 17.6 °F 8.2 °F 14.0 °F 86% 29.83 in 8.0 mi NW 6.9 mph - 0.00 in   Overcast
3:40 PM 17.6 °F 5.7 °F 14.0 °F 86% 29.85 in 4.0 mi NW 10.4 mph - 0.00 in   Overcast
3:53 PM 18.0 °F 6.9 °F 12.9 °F 81% 30.01 in 8.0 mi NW 9.2 mph - 0.01 in   Overcast
4:51 PM 14.0 °F 5.1 °F 8.6 °F 79% 29.88 in 10.0 mi North 5.8 mph - N/A   Overcast
4:53 PM 14.0 °F 6.5 °F 9.0 °F 80% 30.04 in 10.0 mi NNW 4.6 mph - N/A   Overcast
5:53 PM 15.1 °F 6.4 °F 10.0 °F 80% 30.07 in 10.0 mi NNW 5.8 mph - N/A   Overcast
6:53 PM 14.0 °F 3.9 °F 8.1 °F 77% 30.10 in 6.0 mi NNW 6.9 mph - 0.00 in Snow Light Snow
7:53 PM 12.9 °F 5.2 °F 7.0 °F 77% 30.12 in 10.0 mi NNW 4.6 mph - 0.00 in   Overcast
9:19 PM 10.4 °F 0.8 °F 6.8 °F 85% 29.95 in 9.0 mi SW 5.8 mph - 0.00 in Snow Light Snow
9:32 PM 8.6 °F -1.3 °F 6.8 °F 92% 29.95 in 4.0 mi SSW 5.8 mph - 0.00 in Snow Light Snow
9:53 PM 8.1 °F -0.5 °F 3.9 °F 83% 30.15 in 9.0 mi South 4.6 mph - 0.00 in   Overcast
10:53 PM 10.9 °F 2.9 °F 7.0 °F 84% 30.14 in 7.0 mi South 4.6 mph - 0.00 in Snow Light Snow
11:53 PM 7.0 °F -3.3 °F 3.0 °F 84% 30.16 in 10.0 mi South 5.8 mph - 0.00 in   Scattered Clouds